Content
SEND FEEDBACK

Daily
Averages
Monthly
Summary
Germany

GARMISCH-PARTENKIRCHEN, GERMANY


Home > Europe > Germany
Elevation: 2322 feet     Latitude: 47 30N     Longitude: 011 06E

WEATHER
 
SELECT A DAY
Number of Records: 310,994;   Date Range: 7/1/96 - 7/23/14
 
SHARE

PRINT THIS DATA

[ ← Previous Day ]
WEATHER ALMANAC - JULY 6, 2013
[ Next Day → ]
[ °C ]   °F
Weather ElementAverageHighLow
Temperature69.6 °F78.8 °F (2:20 pm)59 °F (5:20 am)
Dewpoint56.4 °F59 °F (12:50 am)51 °F (2:00 pm)
Humidity63.6 %94 % (5:20 am)29 % (2:00 pm)
Barometer30.31 in30.39 in (12:50 am)30.17 in (5:00 pm)
Wind Speed6.5 mph13.8 mph (4:50 pm)
Weather ElementAverage
Visibility8 mi
Wind DirectionENE (60.6 °)

Weather ElementTotal
Precipitation---
Cooling Degree Days3.9 (Base 65)
Growing Degree Days18.9 (Base 50)
Averaged from 55 records on July 6, 2013
WEATHER CONDITIONS BREAKOUT
WIND DIRECTION BREAKOUT
WEATHER BY HOUR - JULY 6, 2013
[ °C ]   °F
Local TimeTemperatureDewpointHumidityBarometerVisibilityWind DirectionWind SpeedGust SpeedPrecipitationEventsConditions
12:50 AM64.4 °F59.0 °F83 %30.39 in6.2 miVariable1.2 mphMostly Cloudy
1:20 AM64.4 °F59.0 °F83 %30.39 in6.2 miVariable1.2 mphMostly Cloudy
1:50 AM64.4 °F57.2 °F77 %30.36 in6.2 miVariable1.2 mphMostly Cloudy
2:00 AM64.0 °F58.0 °F74 %30.32 in25.0 mi°2.2 mph
2:20 AM62.6 °F59.0 °F88 %30.36 in6.2 miVariable1.2 mphMostly Cloudy
2:50 AM62.6 °F57.2 °F82 %30.36 in6.2 miNE (50°)4.6 mphScattered Clouds
3:20 AM60.8 °F57.2 °F88 %30.36 in6.2 miVariable2.3 mphScattered Clouds
3:50 AM62.6 °F57.2 °F82 %30.36 in6.2 miEast (90°)4.6 mphMostly Cloudy
4:20 AM60.8 °F57.2 °F88 %30.36 in6.2 miEast (80°)3.5 mphMostly Cloudy
4:50 AM60.8 °F57.2 °F88 %30.36 in6.2 miESE (110°)4.6 mphScattered Clouds
5:00 AM61.0 °F57.0 °F81 %30.34 in12.0 miESE (110°)4.5 mphScattered Clouds
5:20 AM59.0 °F57.2 °F94 %30.36 in6.2 miEast (90°)3.5 mphScattered Clouds
5:50 AM60.8 °F57.2 °F88 %30.36 in6.2 miEast (80°)3.5 mphMostly Cloudy
6:20 AM60.8 °F57.2 °F88 %30.36 in6.2 miEast (80°)3.5 mphMostly Cloudy
6:50 AM60.8 °F57.2 °F88 %30.36 in6.2 miEast (80°)4.6 mphMostly Cloudy
7:20 AM60.8 °F57.2 °F88 %30.36 in6.2 miEast (80°)4.6 mphScattered Clouds
7:50 AM62.6 °F57.2 °F82 %30.36 in6.2 miENE (70°)8.1 mphScattered Clouds
8:00 AM62.0 °F57.0 °F78 %30.33 in12.0 miENE (70°)8.9 mphScattered Clouds
8:20 AM62.6 °F57.2 °F82 %30.36 in6.2 miENE (70°)6.9 mphPartly Cloudy
8:50 AM64.4 °F57.2 °F77 %30.33 in6.2 miEast (80°)5.8 mphPartly Cloudy
9:20 AM68.0 °F57.2 °F68 %30.33 in6.2 miENE (70°)4.6 mphPartly Cloudy
9:50 AM68.0 °F57.2 °F68 %30.33 in6.2 miENE (60°)5.8 mphMostly Cloudy
10:20 AM71.6 °F59.0 °F64 %30.33 in6.2 miSE (130°)3.5 mphMostly Cloudy
10:50 AM71.6 °F57.2 °F60 %30.33 in6.2 miEast (90°)4.6 mphMostly Cloudy
11:00 AM71.0 °F58.0 °F53 %30.26 in16.0 miEast (90°)4.5 mphScattered Clouds
11:20 AM73.4 °F59.0 °F61 %30.30 in6.2 miVariable2.3 mphScattered Clouds
11:50 AM73.4 °F59.0 °F61 %30.30 in6.2 miVariable4.6 mphScattered Clouds
12:20 PM75.2 °F57.2 °F53 %30.30 in6.2 miEast (90°)6.9 mphMostly Cloudy
12:50 PM77.0 °F55.4 °F47 %30.30 in6.2 miVariable3.5 mphScattered Clouds
1:20 PM77.0 °F53.6 °F44 %30.27 in6.2 miNE (40°)6.9 mphScattered Clouds
1:50 PM77.0 °F51.8 °F41 %30.27 in6.2 miENE (60°)8.1 mphScattered Clouds
2:00 PM77.0 °F51.0 °F29 %30.19 in19.0 miENE (60°)8.9 mphScattered Clouds
2:20 PM78.8 °F53.6 °F42 %30.27 in6.2 miENE (60°)9.2 mphScattered Clouds
2:50 PM77.0 °F53.6 °F44 %30.27 in6.2 miEast (80°)9.2 mphScattered Clouds
3:20 PM77.0 °F53.6 °F44 %30.27 in6.2 miEast (90°)11.5 mphScattered Clouds
3:50 PM77.0 °F51.8 °F41 %30.27 in6.2 miEast (80°)11.5 mphScattered Clouds
4:20 PM77.0 °F53.6 °F44 %30.24 in6.2 miEast (80°)11.5 mphScattered Clouds
4:50 PM77.0 °F55.4 °F47 %30.24 in6.2 miENE (70°)13.8 mphScattered Clouds
5:00 PM78.0 °F54.0 °F34 %30.17 in25.0 miENE (70°)13.4 mphPartly Cloudy
5:20 PM78.8 °F55.4 °F44 %30.24 in6.2 miEast (80°)11.5 mphScattered Clouds
5:50 PM78.8 °F55.4 °F44 %30.24 in6.2 miEast (90°)11.5 mphScattered Clouds
6:20 PM77.0 °F55.4 °F47 %30.24 in6.2 miEast (80°)12.7 mphScattered Clouds
6:50 PM77.0 °F57.2 °F50 %30.24 in6.2 miENE (70°)11.5 mphScattered Clouds
7:20 PM75.2 °F57.2 °F53 %30.27 in6.2 miENE (60°)12.7 mphScattered Clouds
7:50 PM73.4 °F55.4 °F53 %30.27 in6.2 miENE (70°)13.8 mphScattered Clouds
8:00 PM74.0 °F56.0 °F43 %30.20 in25.0 miENE (70°)13.4 mphPartly Cloudy
8:20 PM71.6 °F57.2 °F60 %30.27 in6.2 miNE (50°)9.2 mphMostly Cloudy
8:50 PM71.6 °F57.2 °F60 %30.30 in6.2 miENE (60°)11.5 mphMostly Cloudy
9:20 PM71.6 °F57.2 °F60 %30.30 in6.2 miNE (40°)6.9 mphMostly Cloudy
9:50 PM71.6 °F57.2 °F60 %30.30 in6.2 miNE (50°)5.8 mphMostly Cloudy
10:20 PM71.6 °F55.4 °F57 %30.33 in6.2 miEast (90°)5.8 mphMostly Cloudy
10:50 PM69.8 °F55.4 °F60 %30.33 in6.2 miVariable1.2 mphScattered Clouds
11:00 PM70.0 °F56.0 °F51 %30.27 in12.0 mi°2.2 mphScattered Clouds
11:20 PM68.0 °F55.4 °F64 %30.33 in6.2 miVariable1.2 mphPartly Cloudy
11:50 PM66.2 °F55.4 °F68 %30.33 in6.2 miNE (40°)3.5 mphPartly Cloudy
Hourly data recorded from LOWI, located miles away from Garmisch-Partenkirchen, Germany







STORIES FROM OUR PARTNERS